Time,TemperatureF,DewpointF,PressureIn,WindDirection,WindDirectionDegrees,WindSpeedMPH,WindSpeedGustMPH,Humidity,HourlyPrecipIn,Conditions,Clouds,dailyrainin,SoftwareType,DateUTC
2013-01-13 00:05:00,59.0,59.0,30.07,ENE,64,0.0,-999.0,98,-99.99,,,0.01,weatherlink.com 1.10,2013-01-13 05:05:00,
2013-01-13 00:20:00,58.7,58.0,30.07,ENE,64,0.0,-999.0,98,-99.99,,,0.01,weatherlink.com 1.10,2013-01-13 05:20:00,
2013-01-13 00:36:00,58.6,58.0,30.06,ENE,64,0.0,-999.0,98,-99.99,,,0.01,weatherlink.com 1.10,2013-01-13 05:36:00,
2013-01-13 00:51:00,58.6,58.0,30.06,ENE,64,0.0,-999.0,98,-99.99,,,0.01,weatherlink.com 1.10,2013-01-13 05:51:00,
2013-01-13 01:06:00,58.4,58.0,30.07,ENE,64,0.0,-999.0,98,-99.99,,,0.01,weatherlink.com 1.10,2013-01-13 06:06:00,
2013-01-13 01:21:00,58.4,58.0,30.07,ENE,64,0.0,-999.0,98,-99.99,,,0.01,weatherlink.com 1.10,2013-01-13 06:21:00,
2013-01-13 01:36:00,58.4,58.0,30.07,ENE,64,0.0,-999.0,98,-99.99,,,0.00,weatherlink.com 1.10,2013-01-13 06:36:00,
2013-01-13 01:51:00,58.4,58.0,30.07,ENE,64,0.0,-999.0,98,-99.99,,,0.00,weatherlink.com 1.10,2013-01-13 06:51:00,
2013-01-13 02:06:00,58.4,58.0,30.07,ENE,64,0.0,-999.0,98,-99.99,,,0.00,weatherlink.com 1.10,2013-01-13 07:06:00,
2013-01-13 02:21:00,58.7,58.0,30.07,ENE,65,2.0,-999.0,98,-99.99,,,0.00,weatherlink.com 1.10,2013-01-13 07:21:00,
2013-01-13 02:36:00,58.9,59.0,30.07,NE,41,0.0,-999.0,99,-99.99,,,0.00,weatherlink.com 1.10,2013-01-13 07:36:00,
2013-01-13 02:51:00,58.7,59.0,30.07,NE,41,0.0,-999.0,99,-99.99,,,0.00,weatherlink.com 1.10,2013-01-13 07:51:00,
2013-01-13 03:06:00,58.6,58.0,30.07,NE,41,0.0,-999.0,99,-99.99,,,0.00,weatherlink.com 1.10,2013-01-13 08:06:00,
2013-01-13 03:21:00,58.4,58.0,30.06,NE,41,0.0,-999.0,99,-99.99,,,0.00,weatherlink.com 1.10,2013-01-13 08:21:00,
2013-01-13 03:36:00,58.4,58.0,30.06,NE,41,0.0,-999.0,99,-99.99,,,0.00,weatherlink.com 1.10,2013-01-13 08:36:00,
2013-01-13 03:51:00,58.4,58.0,30.06,NE,41,0.0,-999.0,99,-99.99,,,0.00,weatherlink.com 1.10,2013-01-13 08:51:00,
2013-01-13 04:06:00,58.4,58.0,30.06,NE,41,0.0,-999.0,99,-99.99,,,0.00,weatherlink.com 1.10,2013-01-13 09:06:00,
2013-01-13 04:21:00,58.3,58.0,30.06,NE,41,0.0,-999.0,99,-99.99,,,0.00,weatherlink.com 1.10,2013-01-13 09:21:00,
2013-01-13 04:36:00,58.1,58.0,30.06,NE,41,0.0,-999.0,99,-99.99,,,0.00,weatherlink.com 1.10,2013-01-13 09:36:00,
2013-01-13 04:51:00,58.0,58.0,30.06,NE,41,0.0,-999.0,99,-99.99,,,0.00,weatherlink.com 1.10,2013-01-13 09:51:00,
2013-01-13 05:06:00,57.8,58.0,30.06,NE,41,0.0,-999.0,99,-99.99,,,0.00,weatherlink.com 1.10,2013-01-13 10:06:00,
2013-01-13 05:21:00,57.5,57.0,30.06,NE,41,0.0,-999.0,99,-99.99,,,0.00,weatherlink.com 1.10,2013-01-13 10:21:00,
2013-01-13 05:36:00,57.2,57.0,30.07,NE,41,0.0,-999.0,99,-99.99,,,0.00,weatherlink.com 1.10,2013-01-13 10:36:00,
2013-01-13 05:51:00,57.0,57.0,30.07,NE,41,0.0,-999.0,99,-99.99,,,0.00,weatherlink.com 1.10,2013-01-13 10:51:00,
2013-01-13 06:06:00,56.9,57.0,30.07,NE,41,0.0,-999.0,99,-99.99,,,0.00,weatherlink.com 1.10,2013-01-13 11:06:00,
2013-01-13 06:21:00,56.9,57.0,30.08,NE,41,0.0,-999.0,99,-99.99,,,0.00,weatherlink.com 1.10,2013-01-13 11:21:00,
2013-01-13 06:36:00,56.6,56.0,30.08,NE,41,0.0,-999.0,99,-99.99,,,0.00,weatherlink.com 1.10,2013-01-13 11:36:00,
2013-01-13 06:51:00,56.5,56.0,30.07,NE,41,0.0,-999.0,99,-99.99,,,0.00,weatherlink.com 1.10,2013-01-13 11:51:00,
2013-01-13 07:06:00,56.3,56.0,30.08,NE,41,0.0,-999.0,99,-99.99,,,0.00,weatherlink.com 1.10,2013-01-13 12:06:00,
2013-01-13 07:21:00,55.9,56.0,30.08,NE,41,0.0,-999.0,99,-99.99,,,0.00,weatherlink.com 1.10,2013-01-13 12:21:00,
2013-01-13 07:36:00,55.6,55.0,30.08,NE,41,0.0,-999.0,99,-99.99,,,0.00,weatherlink.com 1.10,2013-01-13 12:36:00,
2013-01-13 07:51:00,55.7,56.0,30.09,NE,41,0.0,-999.0,99,-99.99,,,0.00,weatherlink.com 1.10,2013-01-13 12:51:00,
2013-01-13 08:06:00,56.0,56.0,30.10,NE,41,0.0,-999.0,99,-99.99,,,0.00,weatherlink.com 1.10,2013-01-13 13:06:00,
2013-01-13 08:21:00,55.6,55.0,30.10,ESE,117,0.0,-999.0,99,-99.99,,,0.00,weatherlink.com 1.10,2013-01-13 13:21:00,
2013-01-13 08:36:00,55.7,56.0,30.11,ESE,117,0.0,-999.0,99,-99.99,,,0.00,weatherlink.com 1.10,2013-01-13 13:36:00,
2013-01-13 08:51:00,56.7,57.0,30.11,ESE,117,0.0,-999.0,99,-99.99,,,0.01,weatherlink.com 1.10,2013-01-13 13:51:00,
2013-01-13 09:07:00,58.6,59.0,30.11,ESE,117,0.0,-999.0,100,-99.99,,,0.01,weatherlink.com 1.10,2013-01-13 14:07:00,
2013-01-13 09:21:00,59.5,59.0,30.12,ESE,117,0.0,-999.0,99,-99.99,,,0.01,weatherlink.com 1.10,2013-01-13 14:21:00,
2013-01-13 09:36:00,60.2,60.0,30.12,ESE,117,0.0,-999.0,99,-99.99,,,0.01,weatherlink.com 1.10,2013-01-13 14:36:00,
2013-01-13 09:51:00,60.9,61.0,30.12,ESE,117,0.0,-999.0,99,-99.99,,,0.01,weatherlink.com 1.10,2013-01-13 14:51:00,
2013-01-13 10:06:00,60.5,60.0,30.12,ESE,117,0.0,-999.0,99,-99.99,,,0.01,weatherlink.com 1.10,2013-01-13 15:06:00,
2013-01-13 10:21:00,61.5,61.0,30.12,ESE,117,0.0,-999.0,99,-99.99,,,0.01,weatherlink.com 1.10,2013-01-13 15:21:00,
2013-01-13 10:36:00,61.2,61.0,30.12,South,169,0.0,-999.0,99,-99.99,,,0.01,weatherlink.com 1.10,2013-01-13 15:36:00,
2013-01-13 10:51:00,61.8,61.0,30.11,SSW,209,0.0,-999.0,98,-99.99,,,0.01,weatherlink.com 1.10,2013-01-13 15:51:00,
2013-01-13 11:06:00,61.8,61.0,30.11,SSW,210,0.0,-999.0,97,-99.99,,,0.01,weatherlink.com 1.10,2013-01-13 16:06:00,
2013-01-13 11:21:00,61.5,60.0,30.10,SSW,210,0.0,-999.0,96,-99.99,,,0.01,weatherlink.com 1.10,2013-01-13 16:21:00,
2013-01-13 11:36:00,62.6,61.0,30.09,SSW,208,0.0,-999.0,95,-99.99,,,0.01,weatherlink.com 1.10,2013-01-13 16:36:00,
2013-01-13 11:51:00,63.5,61.0,30.09,SSW,209,0.0,-999.0,90,-99.99,,,0.01,weatherlink.com 1.10,2013-01-13 16:51:00,
2013-01-13 12:06:00,64.0,60.0,30.08,SSW,192,1.0,-999.0,87,-99.99,,,0.01,weatherlink.com 1.10,2013-01-13 17:06:00,
2013-01-13 12:21:00,63.9,59.0,30.08,SW,229,0.0,-999.0,85,-99.99,,,0.01,weatherlink.com 1.10,2013-01-13 17:21:00,
2013-01-13 12:36:00,64.7,60.0,30.07,SW,230,0.0,-999.0,84,-99.99,,,0.01,weatherlink.com 1.10,2013-01-13 17:36:00,
2013-01-13 12:51:00,65.3,60.0,30.07,SW,226,1.0,-999.0,83,-99.99,,,0.01,weatherlink.com 1.10,2013-01-13 17:51:00,
2013-01-13 13:06:00,65.2,60.0,30.07,SSW,210,0.0,-999.0,83,-99.99,,,0.01,weatherlink.com 1.10,2013-01-13 18:06:00,
2013-01-13 13:21:00,65.6,60.0,30.06,SW,219,0.0,-999.0,83,-99.99,,,0.01,weatherlink.com 1.10,2013-01-13 18:21:00,
2013-01-13 13:36:00,65.8,60.0,30.06,South,174,0.0,-999.0,82,-99.99,,,0.01,weatherlink.com 1.10,2013-01-13 18:36:00,
2013-01-13 13:51:00,65.2,60.0,30.05,SSW,199,0.0,-999.0,84,-99.99,,,0.01,weatherlink.com 1.10,2013-01-13 18:51:00,
2013-01-13 14:06:00,65.2,60.0,30.05,SSW,196,0.0,-999.0,83,-99.99,,,0.01,weatherlink.com 1.10,2013-01-13 19:06:00,
2013-01-13 14:21:00,64.5,60.0,30.05,SSW,196,0.0,-999.0,84,-99.99,,,0.01,weatherlink.com 1.10,2013-01-13 19:21:00,
2013-01-13 14:36:00,64.2,60.0,30.05,SSW,196,0.0,-999.0,85,-99.99,,,0.01,weatherlink.com 1.10,2013-01-13 19:36:00,
2013-01-13 14:51:00,64.2,60.0,30.06,SSW,195,0.0,-999.0,85,-99.99,,,0.01,weatherlink.com 1.10,2013-01-13 19:51:00,
2013-01-13 15:06:00,64.3,60.0,30.06,SSW,195,0.0,-999.0,85,-99.99,,,0.01,weatherlink.com 1.10,2013-01-13 20:06:00,
2013-01-13 15:21:00,63.7,59.0,30.07,SSW,195,0.0,-999.0,85,-99.99,,,0.01,weatherlink.com 1.10,2013-01-13 20:21:00,
2013-01-13 15:36:00,62.7,59.0,30.07,SSW,196,0.0,-999.0,87,-99.99,,,0.01,weatherlink.com 1.10,2013-01-13 20:36:00,
2013-01-13 15:51:00,62.6,59.0,30.07,SSW,195,0.0,-999.0,87,-99.99,,,0.01,weatherlink.com 1.10,2013-01-13 20:51:00,
2013-01-13 16:06:00,62.3,59.0,30.07,SSW,195,0.0,-999.0,88,-99.99,,,0.01,weatherlink.com 1.10,2013-01-13 21:06:00,
2013-01-13 16:21:00,62.1,59.0,30.07,SSW,195,0.0,-999.0,89,-99.99,,,0.01,weatherlink.com 1.10,2013-01-13 21:21:00,
2013-01-13 16:38:00,62.1,59.0,30.08,SSW,195,0.0,-999.0,89,-99.99,,,0.01,weatherlink.com 1.10,2013-01-13 21:38:00,
2013-01-13 16:51:00,61.8,59.0,30.08,SSW,195,0.0,-999.0,89,-99.99,,,0.01,weatherlink.com 1.10,2013-01-13 21:51:00,
2013-01-13 17:06:00,61.6,59.0,30.08,SSW,195,0.0,-999.0,90,-99.99,,,0.01,weatherlink.com 1.10,2013-01-13 22:06:00,
2013-01-13 17:21:00,61.5,59.0,30.08,SSW,195,0.0,-999.0,90,-99.99,,,0.01,weatherlink.com 1.10,2013-01-13 22:21:00,
2013-01-13 17:36:00,61.3,59.0,30.09,SSW,195,0.0,-999.0,91,-99.99,,,0.01,weatherlink.com 1.10,2013-01-13 22:36:00,
2013-01-13 17:51:00,61.2,59.0,30.09,SSW,195,0.0,-999.0,92,-99.99,,,0.01,weatherlink.com 1.10,2013-01-13 22:51:00,
2013-01-13 18:06:00,61.3,59.0,30.08,SSW,195,0.0,-999.0,92,-99.99,,,0.01,weatherlink.com 1.10,2013-01-13 23:06:00,
2013-01-13 18:21:00,61.2,59.0,30.09,SSW,195,0.0,-999.0,93,-99.99,,,0.01,weatherlink.com 1.10,2013-01-13 23:21:00,
2013-01-13 18:36:00,61.0,59.0,30.09,SSW,195,0.0,-999.0,93,-99.99,,,0.01,weatherlink.com 1.10,2013-01-13 23:36:00,
2013-01-13 18:51:00,60.5,59.0,30.08,SSW,195,0.0,-999.0,93,-99.99,,,0.01,weatherlink.com 1.10,2013-01-13 23:51:00,
2013-01-13 19:06:00,60.2,59.0,30.07,SSW,205,0.0,-999.0,94,-99.99,,,0.01,weatherlink.com 1.10,2013-01-14 00:06:00,
2013-01-13 19:21:00,60.5,59.0,30.07,SSW,193,0.0,-999.0,94,-99.99,,,0.01,weatherlink.com 1.10,2013-01-14 00:21:00,
2013-01-13 19:36:00,60.7,59.0,30.07,SSW,193,0.0,-999.0,94,-99.99,,,0.01,weatherlink.com 1.10,2013-01-14 00:36:00,
2013-01-13 19:51:00,60.7,59.0,30.06,SSW,212,0.0,-999.0,94,-99.99,,,0.01,weatherlink.com 1.10,2013-01-14 00:51:00,
2013-01-13 20:06:00,60.7,59.0,30.06,South,185,0.0,-999.0,94,-99.99,,,0.01,weatherlink.com 1.10,2013-01-14 01:06:00,
2013-01-13 20:21:00,61.2,60.0,30.06,South,176,0.0,-999.0,94,-99.99,,,0.01,weatherlink.com 1.10,2013-01-14 01:21:00,
2013-01-13 20:36:00,61.2,59.0,30.06,South,175,0.0,-999.0,93,-99.99,,,0.01,weatherlink.com 1.10,2013-01-14 01:36:00,
2013-01-13 20:51:00,61.5,60.0,30.05,South,175,0.0,-999.0,93,-99.99,,,0.01,weatherlink.com 1.10,2013-01-14 01:51:00,
2013-01-13 21:06:00,61.3,59.0,30.06,South,179,0.0,-999.0,93,-99.99,,,0.01,weatherlink.com 1.10,2013-01-14 02:06:00,
2013-01-13 21:21:00,60.9,59.0,30.06,South,179,0.0,-999.0,93,-99.99,,,0.01,weatherlink.com 1.10,2013-01-14 02:21:00,
2013-01-13 21:36:00,60.9,59.0,30.06,South,181,0.0,-999.0,94,-99.99,,,0.01,weatherlink.com 1.10,2013-01-14 02:36:00,
2013-01-13 21:51:00,60.9,60.0,30.06,South,179,0.0,-999.0,95,-99.99,,,0.01,weatherlink.com 1.10,2013-01-14 02:51:00,
2013-01-13 22:06:00,60.7,59.0,30.07,South,181,0.0,-999.0,95,-99.99,,,0.01,weatherlink.com 1.10,2013-01-14 03:06:00,
2013-01-13 22:21:00,61.0,60.0,30.08,South,181,0.0,-999.0,95,-99.99,,,0.01,weatherlink.com 1.10,2013-01-14 03:21:00,
2013-01-13 22:36:00,60.7,59.0,30.08,South,185,1.0,-999.0,95,-99.99,,,0.01,weatherlink.com 1.10,2013-01-14 03:36:00,
2013-01-13 22:51:00,60.9,60.0,30.09,South,188,0.0,-999.0,96,-99.99,,,0.01,weatherlink.com 1.10,2013-01-14 03:51:00,
2013-01-13 23:06:00,61.3,60.0,30.09,South,186,0.0,-999.0,96,-99.99,,,0.01,weatherlink.com 1.10,2013-01-14 04:06:00,
2013-01-13 23:21:00,62.0,61.0,30.09,South,186,0.0,-999.0,96,-99.99,,,0.01,weatherlink.com 1.10,2013-01-14 04:21:00,
2013-01-13 23:36:00,61.5,60.0,30.10,South,188,0.0,-999.0,95,-99.99,,,0.01,weatherlink.com 1.10,2013-01-14 04:36:00,
2013-01-13 23:51:00,61.6,60.0,30.10,South,189,0.0,-999.0,94,-99.99,,,0.01,weatherlink.com 1.10,2013-01-14 04:51:00,